When you browse on this site, cookies collect data to enhance your experience and personalize the content and advertising you see.
Visit our Privacy Policy to learn more. By continuing to use the site, you agree to this use of cookies and data.
EN

Hourly Weather Zankovschina

Today, 10 August, Monday

Time Temperature Precipitation Wind Pressure Humidity
00:00 +17°C° 0 mm 2 mps 744 mmHg 88%
01:00 +18°C° 0 mm 1 mps 744 mmHg 90%
02:00 +16°C° 0 mm 1 mps 744 mmHg 92%
03:00 +16°C° 0 mm 1 mps 744 mmHg 92%
04:00 +16°C° 0 mm 1 mps 744 mmHg 93%
05:00 +16°C° 0 mm 1 mps 744 mmHg 93%
06:00 +18°C° 0 mm 1 mps 744 mmHg 89%
07:00 +19°C° 0 mm 2 mps 744 mmHg 85%
08:00 +20°C° 0 mm 2 mps 744 mmHg 81%
09:00 +21°C° 0.7 mm 2 mps 744 mmHg 78%
10:00 +24°C° 0.7 mm 2 mps 744 mmHg 74%
11:00 +25°C° 0.7 mm 3 mps 744 mmHg 70%
12:00 +25°C° 1.1 mm 2 mps 744 mmHg 68%
13:00 +26°C° 1.1 mm 2 mps 744 mmHg 66%
14:00 +26°C° 1.1 mm 2 mps 744 mmHg 64%
15:00 +26°C° 1.3 mm 1 mps 743 mmHg 68%
16:00 +25°C° 1.3 mm 1 mps 743 mmHg 71%
17:00 +25°C° 1.3 mm 1 mps 743 mmHg 74%
18:00 +24°C° 0.2 mm 1 mps 743 mmHg 77%
19:00 +22°C° 0.2 mm 1 mps 743 mmHg 80%
20:00 +21°C° 0.2 mm 1 mps 743 mmHg 83%
21:00 +19°C° 0.3 mm 2 mps 743 mmHg 85%
22:00 +19°C° 0.3 mm 2 mps 743 mmHg 86%
23:00 +18°C° 0.3 mm 2 mps 743 mmHg 88%

Tomorrow, 11 August, Tuesday

Time Temperature Precipitation Wind Pressure Humidity
00:00 +18°C° 0.1 mm 2 mps 743 mmHg 90%
01:00 +17°C° 0.1 mm 2 mps 743 mmHg 92%
02:00 +17°C° 0.1 mm 3 mps 743 mmHg 94%
03:00 +16°C° 0 mm 3 mps 743 mmHg 94%
04:00 +16°C° 0 mm 3 mps 743 mmHg 95%
05:00 +14°C° 0 mm 3 mps 743 mmHg 96%
06:00 +17°C° 0 mm 3 mps 743 mmHg 94%
07:00 +18°C° 0 mm 4 mps 743 mmHg 91%
08:00 +19°C° 0 mm 4 mps 743 mmHg 89%
09:00 +19°C° 0 mm 4 mps 743 mmHg 84%
10:00 +20°C° 0 mm 4 mps 743 mmHg 79%
11:00 +21°C° 0 mm 4 mps 743 mmHg 74%
12:00 +21°C° 0 mm 5 mps 743 mmHg 71%
13:00 +21°C° 0 mm 5 mps 744 mmHg 68%
14:00 +21°C° 0 mm 5 mps 744 mmHg 65%
15:00 +20°C° 0 mm 5 mps 744 mmHg 68%
16:00 +20°C° 0 mm 5 mps 744 mmHg 70%
17:00 +19°C° 0 mm 5 mps 744 mmHg 72%
18:00 +17°C° 0 mm 4 mps 744 mmHg 76%
19:00 +14°C° 0 mm 4 mps 744 mmHg 80%
20:00 +12°C° 0 mm 3 mps 744 mmHg 84%
21:00 +12°C° 0 mm 3 mps 745 mmHg 85%
22:00 +11°C° 0 mm 3 mps 745 mmHg 87%
23:00 +10°C° 0 mm 3 mps 745 mmHg 88%

Day after tomorrow, 12 August, Wednesday

Time Temperature Precipitation Wind Pressure Humidity
00:00 +10°C° 0 mm 3 mps 745 mmHg 89%
01:00 +9°C° 0 mm 3 mps 745 mmHg 90%
02:00 +9°C° 0 mm 3 mps 745 mmHg 91%
03:00 +9°C° 0 mm 3 mps 745 mmHg 92%
04:00 +9°C° 0 mm 3 mps 745 mmHg 93%
05:00 +8°C° 0 mm 3 mps 745 mmHg 94%
06:00 +10°C° 0 mm 4 mps 745 mmHg 91%
07:00 +11°C° 0 mm 4 mps 745 mmHg 87%
08:00 +12°C° 0 mm 4 mps 745 mmHg 83%
09:00 +13°C° 0 mm 4 mps 745 mmHg 79%
10:00 +15°C° 0 mm 4 mps 745 mmHg 76%
11:00 +16°C° 0 mm 5 mps 745 mmHg 72%
12:00 +18°C° 0.1 mm 4 mps 745 mmHg 71%
13:00 +18°C° 0.1 mm 4 mps 745 mmHg 69%
14:00 +19°C° 0.1 mm 4 mps 745 mmHg 68%
15:00 +18°C° 0.1 mm 4 mps 745 mmHg 71%
16:00 +18°C° 0.1 mm 4 mps 745 mmHg 74%
17:00 +17°C° 0.1 mm 4 mps 745 mmHg 77%
18:00 +16°C° 0 mm 3 mps 745 mmHg 79%
19:00 +14°C° 0 mm 3 mps 745 mmHg 82%
20:00 +13°C° 0 mm 3 mps 745 mmHg 84%
21:00 +12°C° 0 mm 3 mps 746 mmHg 85%
22:00 +11°C° 0 mm 3 mps 746 mmHg 87%
23:00 +9°C° 0 mm 3 mps 746 mmHg 88%

13 August, Thursday

Time Temperature Precipitation Wind Pressure Humidity
00:00 +9°C° 0 mm 3 mps 746 mmHg 88%
01:00 +9°C° 0 mm 3 mps 746 mmHg 88%
02:00 +9°C° 0 mm 3 mps 746 mmHg 88%
03:00 +9°C° 0 mm 3 mps 746 mmHg 87%
04:00 +9°C° 0 mm 3 mps 746 mmHg 85%
05:00 +10°C° 0 mm 3 mps 746 mmHg 84%
06:00 +11°C° 0 mm 3 mps 746 mmHg 82%
07:00 +11°C° 0 mm 3 mps 746 mmHg 80%
08:00 +12°C° 0 mm 4 mps 746 mmHg 79%
09:00 +12°C° 0 mm 4 mps 746 mmHg 76%
10:00 +13°C° 0 mm 4 mps 746 mmHg 74%
11:00 +13°C° 0 mm 4 mps 746 mmHg 72%
12:00 +14°C° 0 mm 4 mps 746 mmHg 69%
13:00 +14°C° 0 mm 4 mps 746 mmHg 66%
14:00 +16°C° 0 mm 3 mps 746 mmHg 63%
15:00 +16°C° 0 mm 3 mps 746 mmHg 64%
16:00 +16°C° 0 mm 3 mps 746 mmHg 66%
17:00 +16°C° 0 mm 3 mps 746 mmHg 67%
18:00 +13°C° 0 mm 3 mps 746 mmHg 72%
19:00 +13°C° 0 mm 2 mps 746 mmHg 76%
20:00 +10°C° 0 mm 2 mps 746 mmHg 81%
21:00 +10°C° 0 mm 2 mps 746 mmHg 82%
22:00 +9°C° 0 mm 2 mps 746 mmHg 82%
23:00 +8°C° 0 mm 2 mps 746 mmHg 83%

14 August, Friday

Time Temperature Precipitation Wind Pressure Humidity
00:00 +8°C° 0 mm 2 mps 746 mmHg 84%
01:00 +8°C° 0 mm 2 mps 746 mmHg 85%
02:00 +7°C° 0 mm 2 mps 746 mmHg 86%
03:00 +7°C° 0 mm 2 mps 746 mmHg 88%
04:00 +7°C° 0 mm 2 mps 746 mmHg 90%
05:00 +7°C° 0 mm 2 mps 746 mmHg 91%
06:00 +9°C° 0 mm 2 mps 746 mmHg 86%
07:00 +12°C° 0 mm 2 mps 746 mmHg 81%
08:00 +14°C° 0 mm 2 mps 746 mmHg 75%
09:00 +15°C° 0 mm 2 mps 746 mmHg 70%
10:00 +16°C° 0 mm 2 mps 746 mmHg 65%
11:00 +17°C° 0 mm 2 mps 746 mmHg 60%
12:00 +18°C° 0 mm 2 mps 746 mmHg 59%
13:00 +19°C° 0 mm 2 mps 746 mmHg 58%
14:00 +19°C° 0 mm 2 mps 746 mmHg 57%
15:00 +19°C° 0 mm 2 mps 745 mmHg 61%
16:00 +19°C° 0 mm 2 mps 745 mmHg 65%
17:00 +19°C° 0 mm 3 mps 745 mmHg 69%
18:00 +17°C° 0 mm 2 mps 745 mmHg 75%
19:00 +16°C° 0 mm 2 mps 745 mmHg 81%
20:00 +14°C° 0 mm 2 mps 745 mmHg 87%
21:00 +14°C° 0 mm 2 mps 745 mmHg 88%
22:00 +14°C° 0 mm 2 mps 744 mmHg 89%
23:00 +14°C° 0 mm 2 mps 744 mmHg 91%

15 August, Saturday

Time Temperature Precipitation Wind Pressure Humidity
00:00 +13°C° 0 mm 3 mps 744 mmHg 90%
01:00 +13°C° 0 mm 3 mps 744 mmHg 90%
02:00 +13°C° 0 mm 3 mps 744 mmHg 90%
03:00 +13°C° 0.2 mm 3 mps 744 mmHg 91%
04:00 +13°C° 0.2 mm 3 mps 744 mmHg 92%
05:00 +13°C° 0.2 mm 3 mps 744 mmHg 94%
06:00 +13°C° 0.1 mm 3 mps 744 mmHg 94%
07:00 +14°C° 0.1 mm 3 mps 744 mmHg 94%
08:00 +14°C° 0.1 mm 3 mps 743 mmHg 94%
09:00 +16°C° 0.3 mm 3 mps 743 mmHg 92%
10:00 +16°C° 0.3 mm 3 mps 743 mmHg 89%
11:00 +17°C° 0.3 mm 3 mps 743 mmHg 87%
12:00 +17°C° 0.4 mm 3 mps 743 mmHg 87%
13:00 +17°C° 0.4 mm 2 mps 743 mmHg 87%
14:00 +17°C° 0.4 mm 2 mps 743 mmHg 87%
15:00 +18°C° 0.2 mm 2 mps 742 mmHg 85%
16:00 +18°C° 0.2 mm 2 mps 742 mmHg 84%
17:00 +19°C° 0.2 mm 3 mps 742 mmHg 82%
18:00 +18°C° 0.2 mm 3 mps 742 mmHg 85%
19:00 +17°C° 0.2 mm 3 mps 742 mmHg 87%
20:00 +16°C° 0.2 mm 3 mps 741 mmHg 89%
21:00 +14°C° 0 mm 3 mps 741 mmHg 90%
22:00 +14°C° 0 mm 3 mps 741 mmHg 91%
23:00 +13°C° 0 mm 3 mps 741 mmHg 92%
Show more